TimeMST,TemperatureF,Dew PointF,Humidity,Sea Level PressureIn,VisibilityMPH,Wind Direction,Wind SpeedMPH,Gust SpeedMPH,PrecipitationIn,Events,Conditions,WindDirDegrees,DateUTC
12:53 AM,52.0,8.1,17,30.20,10.0,NNW,3.5,-,N/A,,Clear,330,2013-02-28 07:53:00
1:53 AM,53.1,6.1,15,30.21,10.0,North,8.1,-,N/A,,Clear,360,2013-02-28 08:53:00
2:53 AM,50.0,7.0,18,30.20,10.0,NNW,3.5,-,N/A,,Clear,330,2013-02-28 09:53:00
3:53 AM,46.0,10.9,24,30.21,10.0,Calm,Calm,-,N/A,,Clear,0,2013-02-28 10:53:00
4:53 AM,43.0,12.9,30,30.22,10.0,Calm,Calm,-,N/A,,Clear,0,2013-02-28 11:53:00
5:53 AM,43.0,12.9,30,30.25,10.0,Calm,Calm,-,N/A,,Clear,0,2013-02-28 12:53:00
7:53 AM,52.0,3.9,14,30.27,10.0,North,8.1,-,N/A,,Clear,10,2013-02-28 14:53:00
8:53 AM,57.0,1.9,11,30.28,10.0,NE,5.8,-,N/A,,Clear,50,2013-02-28 15:53:00
9:53 AM,57.0,12.0,17,30.30,10.0,South,3.5,-,N/A,,Clear,190,2013-02-28 16:53:00
10:53 AM,60.1,7.0,12,30.29,10.0,SW,3.5,-,N/A,,Clear,220,2013-02-28 17:53:00
11:53 AM,63.0,5.0,10,30.27,10.0,Calm,Calm,-,N/A,,Clear,0,2013-02-28 18:53:00
12:53 PM,66.0,3.9,9,30.26,10.0,Variable,4.6,-,N/A,,Clear,0,2013-02-28 19:53:00
2:53 PM,69.1,5.0,8,30.22,10.0,Calm,Calm,-,N/A,,Clear,0,2013-02-28 21:53:00
3:53 PM,70.0,6.1,8,30.21,10.0,NNE,4.6,-,N/A,,Clear,20,2013-02-28 22:53:00
4:53 PM,70.0,6.1,8,30.21,10.0,West,6.9,-,N/A,,Clear,260,2013-02-28 23:53:00
6:53 PM,64.9,10.9,12,30.23,10.0,Calm,Calm,-,N/A,,Clear,0,2013-03-01 01:53:00
7:53 PM,62.1,15.1,16,30.24,10.0,Calm,Calm,-,N/A,,Clear,0,2013-03-01 02:53:00
8:53 PM,57.9,19.0,22,30.25,10.0,Calm,Calm,-,N/A,,Clear,0,2013-03-01 03:53:00
9:53 PM,55.0,21.9,28,30.27,10.0,Calm,Calm,-,N/A,,Clear,0,2013-03-01 04:53:00
10:53 PM,54.0,19.9,26,30.29,10.0,NNE,3.5,-,N/A,,Clear,30,2013-03-01 05:53:00
11:53 PM,51.1,24.1,35,30.29,10.0,Calm,Calm,-,N/A,,Clear,0,2013-03-01 06:53:00